OIIK

Qazvin Airport

Airport
ICAO code
OIIK
IATA Code
GZW
Summary
ICAO Region
MID
ICAO Territory
Location

Qazvin, Qazvin Province

Serving
Qazvin
Elevation
4184 ft
Coordinates
36° 14' 35" N , 50° 2' 50" E
KCC
Metar
OIIK 210600Z 17004KT 9999 FEW040 BKN180 21/06 Q1014

Airport located on the eastern outskirts of the city of Qazvin, Iran.

Climatology

Warm Mediterranean climate (Köppen climate classification Csa).

Runways

Designator Length Width Surface Rops
10/28 1119 40 ASP No/No

Airport map

Aerial View

SKYbrary Partners:

Safety knowledge contributed by: